{"data":{"norad_id":46715,"epoch":"2026-07-18T16:45:47.814048Z","epoch_age_seconds":5538230,"freshness":"OLD","line1":"1 46715U 20073AX  26199.69847007  .09017559  12503-4  42057-3 0  9995","line2":"2 46715  53.0248 279.6772 0007004 303.1626  56.8749 16.42774017318188","mean_motion":16.42774017,"eccentricity":0.0007004,"inclination_deg":53.0248,"raan_deg":279.6772,"arg_perigee_deg":303.1626,"mean_anomaly_deg":56.8749,"bstar":0.00042057,"rev_number":31818,"period_min":87.656609192645,"perigee_km":153.85541001665,"apogee_km":163.01183814686,"semimajor_km":6536.5706240818,"source":"CELESTRAK","updated_at":"2026-07-19T09:00:48.220009Z"}}